Flag for U.S.A. Weather past 2 weeks in Fall River, Massachusetts, U.S.A.

Now
40 °F

Sunny.


Feels Like: 34 °F
Forecast: 33 / 56 °F
Wind: 9 mph from West

Location: New Bedford Regional Airport

Current Time: Apr 25, 2015 at 8:33:54 AM

Latest Report: Apr 25, 2015 at 7:53 AM


Visibility: 10 mi

Pressure: 29.80 "Hg

Humidity: 53%

Dew point: 24 °F

Location of Fall RiverLocation

Historic Weather in Fall River — Graph

°F

Fall River temperature yesterday

Maximum temperature yesterday: 51 °F (at 2:53 PM)
Minimum temperature yesterday: 36 °F (at 3:53 AM)
Average temperature yesterday: 43 °F

Past Weeks' High & Low Weather Summary

 TemperatureHumidityPressure
High71 °F (Apr 21, 1:53 PM)100% (Apr 10, 6:53 AM)30.48 "Hg (Apr 10, 6:53 AM)
Low30 °F (Apr 16, 5:53 AM)14% (Apr 15, 2:53 PM)29.53 "Hg (Apr 21, 8:53 AM)
Average50 °F66%29.96 "Hg
* Reported Apr 10 6:53 AM — Apr 25 6:53 AM, Fall River, Weather by CustomWeather, © 2015

Note: Actual official high and low records may vary slightly from our data, if they occured in-between our weather recording intervals... More about our weather records

Advertising

Fall River weather history for previous 24 hours

 ConditionsComfort  
Time TempWeatherWind HumidityBarometerVisibility
6:53 AM
Sat, Apr 25
37 °FSunny.12 mph62%29.80 "Hg10 mi
5:53 AM35 °FClear.9 mph61%29.79 "Hg10 mi
4:53 AM34 °FClear.7 mph64%29.78 "Hg10 mi
3:53 AM35 °FClear.8 mph59%29.78 "Hg10 mi
2:53 AM35 °FClear.8 mph59%29.78 "Hg10 mi
1:53 AM35 °FPassing clouds.5 mph61%29.78 "Hg10 mi
12:53 AM37 °FClear.8 mph57%29.80 "Hg10 mi
11:53 PM
Fri, Apr 24
38 °FClear.6 mph58%29.80 "Hg10 mi
10:53 PM40 °FClear.9 mph49%29.80 "Hg10 mi
9:53 PM40 °FClear.8 mph49%29.79 "Hg10 mi
8:53 PM42 °FClear.8 mph45%29.78 "Hg10 mi
6:53 PM47 °FOvercast.12 mph37%29.73 "Hg10 mi
5:53 PM48 °FPassing clouds.14 mph36%29.72 "Hg10 mi
4:53 PM50 °FPassing clouds.14 mph35%29.70 "Hg10 mi
3:53 PM49 °FPartly sunny.12 mph36%29.70 "Hg10 mi
2:53 PM51 °FPassing clouds.15 mph35%29.68 "Hg10 mi
1:53 PM48 °FPartly sunny.10 mph39%29.70 "Hg10 mi
12:53 PM49 °FScattered clouds.8 mph39%29.71 "Hg10 mi
11:53 AM48 °FPartly sunny.16 mph39%29.72 "Hg10 mi
10:53 AM46 °FOvercast.18 mph44%29.73 "Hg10 mi
9:53 AM43 °FOvercast.10 mph49%29.74 "Hg10 mi
8:53 AM44 °FOvercast.15 mph47%29.73 "Hg10 mi
Weather by CustomWeather, © 2015

See weather overviewHow to use our weather pages